Terminal Aerodrome Forecast
Issued by NWS

Home | Current Version | Previous Version | Text Only | Print | Product List | Glossary On
Versions: 1 2 3 4 5 6 7 8 9 10 11 12 13 14 15 16 17 18 19 20 21 22 23
000
FTUS41 KBOX 252010 AAA
TAFMHT
TAF AMD
KMHT 252010Z 2520/2618 26009KT P6SM SCT200
     FM260100 21004KT P6SM BKN050
     FM260600 27005KT P6SM SCT150
     FM261100 27009KT P6SM SCT250
     FM261300 28010G20KT P6SM BKN050=

USA.gov is the U.S. government's official web portal to all federal, state and local government web resources and services.